Regional Weather Roundup
Issued by NWS

Home | Current Version | Previous Version | Graphics & Text | Print | Product List | Glossary On
Versions: 1 2 3 4 5 6 7 8 9 10 11 12 13 14 15 16 17 18 19 20 21 22 23 24 25 26 27 28 29 30 31 32 33 34 35 36 37 38 39 40 41 42 43 44 45 46 47 48 49 50
565
ASUS43 KFSD 030510
RWRSD

WEATHER ROUNDUP FOR SOUTH DAKOTA
NATIONAL WEATHER SERVICE SIOUX FALLS SD
1200 AM CDT TUE MAY 03 2016

NOTE: "FAIR" INDICATES FEW OR NO CLOUDS BELOW 12,000 FEET WITH NO
SIGNIFICANT WEATHER AND/OR OBSTRUCTIONS TO VISIBILITY.


SDZ001>005-009-010-012>017-030600-
NORTHWEST AND NORTH CENTRAL SOUTH DAKOTA

CITY           SKY/WX    TMP DP  RH WIND       PRES   REMARKS
BUFFALO          N/A     54  32  43 CALM      30.00R
FAITH            N/A     44  40  85 S9        30.04S
MOBRIDGE       CLEAR     47  44  90 CALM      29.99S
$$

SDZ012>016-024>037-041>051-057-063-072>074-030600-
SOUTHWEST AND SOUTH CENTRAL SOUTH DAKOTA

CITY           SKY/WX    TMP DP  RH WIND       PRES   REMARKS
RAPID CTY ARPT CLEAR     42  36  79 NW10      30.05S
PIERRE         CLEAR     41  38  89 W7        30.02S
CUSTER         PTCLDY    46  27  47 VRB3      30.10S
ELLSWORTH AFB  CLEAR     45  38  75 NW7       30.05R
PHILIP         CLEAR     37  36  96 CALM      30.05R
PINE RIDGE     CLEAR     40  37  89 E6        30.05R
WINNER         FAIR      48  42  80 W5        30.05S
$$

SDZ004>011-016>023-039-040-030600-
NORTHEAST SOUTH DAKOTA

CITY           SKY/WX    TMP DP  RH WIND       PRES   REMARKS
ABERDEEN       CLEAR     42  35  76 CALM      30.01F
WATERTOWN      CLEAR     47  39  74 CALM      30.01S
BROOKINGS      CLEAR     46  39  76 SW7       30.02F
SISSETON         N/A     47  36  65 CALM      29.99S
$$

SDZ017-020-022-023-036>040-048>070-030600-
SOUTHEAST SOUTH DAKOTA

CITY           SKY/WX    TMP DP  RH WIND       PRES   REMARKS
SIOUX FALLS    CLEAR     44  38  79 CALM      30.04S
HURON          CLEAR     48  43  82 SE3       30.02S
CHAMBERLAIN    CLEAR     48  47  97 CALM      30.05R
MITCHELL       PTCLDY    47  45  93 SE3       30.04R
YANKTON        CLEAR     46  39  76 NE3       30.03S
$$

ABBREVIATIONS USED IN REMARKS
   TC - TEMPERATURE IN CELSIUS
  WCI - WIND CHILL INDEX
   HX - HEAT INDEX
  VSB - VISIBILITY





USA.gov is the U.S. government's official web portal to all federal, state and local government web resources and services.